Location: Eaton Estates
(41.3089°N, 82.0057°W)
Time: 14:34:07
(UTC+00:00)

USA 308 - Pass Details

Date: 28 October 2021
Orbit: 565 x 570 km, 54.0° (Epoch: 04 December)

Event Time Altitude Azimuth Distance (km) Brightness Sun altitude
Exits shadow 09:44:01 32° 9° (N) 1,001 4.2 -25.1°
Drops below altitude 10° 09:46:48 10° 39° (NE) 1,880 6.1 -24.6°
Sets 09:49:10 0° 47° (NE) 2,780 7.2 -24.2°
